• în Republica Moldova
  • Lista ţărilor
  • Pe 7 zile
  • Temperatura apei
  • Hartă satelitară
  • Meteo pe hartă
  • Widget-uri
  • user-avatar
    Intrare

    Meteo pe oră la Yurevka

    Astăzi, 15 Noiembrie, Joi

    Timp Temperatura Precipitaţii Vânt Presiune Umiditate
    00:00 -3°C° 0 mm 4 m/s 758 mmHg 53%
    01:00 -3°C° 0 mm 4 m/s 758 mmHg 54%
    02:00 -3°C° 0 mm 4 m/s 758 mmHg 55%
    03:00 -4°C° 0 mm 3 m/s 758 mmHg 57%
    04:00 -4°C° 0 mm 3 m/s 758 mmHg 59%
    05:00 -4°C° 0 mm 3 m/s 759 mmHg 60%
    06:00 -4°C° 0 mm 3 m/s 759 mmHg 60%
    07:00 -4°C° 0 mm 3 m/s 760 mmHg 60%
    08:00 -4°C° 0 mm 4 m/s 760 mmHg 60%
    09:00 -2°C° 0 mm 3 m/s 761 mmHg 58%
    10:00 -1°C° 0 mm 3 m/s 761 mmHg 55%
    11:00 -1°C° 0 mm 3 m/s 761 mmHg 52%
    12:00 -1°C° 0 mm 3 m/s 762 mmHg 51%
    13:00 -1°C° 0 mm 3 m/s 762 mmHg 50%
    14:00 +1°C° 0 mm 2 m/s 762 mmHg 49%
    15:00 -1°C° 0 mm 2 m/s 762 mmHg 51%
    16:00 -2°C° 0 mm 2 m/s 763 mmHg 52%
    17:00 -3°C° 0 mm 2 m/s 763 mmHg 54%
    18:00 -3°C° 0 mm 2 m/s 763 mmHg 53%
    19:00 -3°C° 0 mm 2 m/s 764 mmHg 52%
    20:00 -3°C° 0 mm 2 m/s 764 mmHg 51%
    21:00 -3°C° 0 mm 2 m/s 765 mmHg 50%
    22:00 -3°C° 0 mm 2 m/s 765 mmHg 49%
    23:00 -3°C° 0 mm 2 m/s 765 mmHg 49%

    Mâine, 16 Noiembrie, Vineri

    Timp Temperatura Precipitaţii Vânt Presiune Umiditate
    00:00 -3°C° 0 mm 2 m/s 765 mmHg 47%
    01:00 -3°C° 0 mm 2 m/s 766 mmHg 46%
    02:00 -4°C° 0 mm 2 m/s 766 mmHg 45%
    03:00 -4°C° 0 mm 2 m/s 766 mmHg 43%
    04:00 -4°C° 0 mm 2 m/s 766 mmHg 41%
    05:00 -4°C° 0 mm 2 m/s 766 mmHg 39%
    06:00 -4°C° 0 mm 2 m/s 767 mmHg 37%
    07:00 -4°C° 0 mm 2 m/s 767 mmHg 35%
    08:00 -4°C° 0 mm 2 m/s 767 mmHg 33%
    09:00 -3°C° 0 mm 2 m/s 767 mmHg 30%
    10:00 -2°C° 0 mm 2 m/s 768 mmHg 27%
    11:00 -1°C° 0 mm 2 m/s 768 mmHg 24%
    12:00 -1°C° 0 mm 2 m/s 768 mmHg 25%
    13:00 -1°C° 0 mm 2 m/s 768 mmHg 25%
    14:00 +1°C° 0 mm 1 m/s 767 mmHg 25%
    15:00 -2°C° 0 mm 2 m/s 768 mmHg 26%
    16:00 -2°C° 0 mm 2 m/s 768 mmHg 27%
    17:00 -3°C° 0 mm 2 m/s 768 mmHg 28%
    18:00 -3°C° 0 mm 2 m/s 768 mmHg 27%
    19:00 -3°C° 0 mm 2 m/s 768 mmHg 27%
    20:00 -3°C° 0 mm 2 m/s 768 mmHg 26%
    21:00 -1°C° 0 mm 1 m/s 768 mmHg 26%
    22:00 -2°C° 0 mm 1 m/s 768 mmHg 25%
    23:00 -2°C° 0 mm 1 m/s 767 mmHg 24%

    Poimâine, 17 Noiembrie, Sâmbătă

    Timp Temperatura Precipitaţii Vânt Presiune Umiditate
    00:00 -2°C° 0 mm 1 m/s 767 mmHg 24%
    01:00 -2°C° 0 mm 1 m/s 767 mmHg 23%
    02:00 -3°C° 0 mm 0 m/s 767 mmHg 23%
    03:00 -3°C° 0 mm 0 m/s 767 mmHg 22%
    04:00 -3°C° 0 mm 0 m/s 767 mmHg 22%
    05:00 -3°C° 0 mm 0 m/s 766 mmHg 22%
    06:00 -2°C° 0 mm 1 m/s 766 mmHg 22%
    07:00 -2°C° 0 mm 1 m/s 766 mmHg 21%
    08:00 -2°C° 0 mm 1 m/s 766 mmHg 21%
    09:00 -1°C° 0 mm 1 m/s 765 mmHg 20%
    10:00 0°C° 0 mm 1 m/s 765 mmHg 19%
    11:00 +1°C° 0 mm 1 m/s 764 mmHg 18%
    12:00 -1°C° 0 mm 2 m/s 764 mmHg 19%
    13:00 -1°C° 0 mm 2 m/s 763 mmHg 20%
    14:00 -1°C° 0 mm 2 m/s 762 mmHg 22%
    15:00 -1°C° 0 mm 2 m/s 762 mmHg 23%
    16:00 -2°C° 0 mm 3 m/s 761 mmHg 25%
    17:00 -4°C° 0 mm 3 m/s 760 mmHg 26%
    18:00 -2°C° 0 mm 3 m/s 760 mmHg 27%
    19:00 -2°C° 0 mm 3 m/s 759 mmHg 28%
    20:00 -2°C° 0 mm 3 m/s 758 mmHg 29%
    21:00 -3°C° 0 mm 4 m/s 757 mmHg 36%
    22:00 -3°C° 0 mm 4 m/s 757 mmHg 42%
    23:00 -3°C° 0 mm 4 m/s 756 mmHg 49%

    18 Noiembrie, Duminică

    Timp Temperatura Precipitaţii Vânt Presiune Umiditate
    00:00 -3°C° 0.2 mm 4 m/s 755 mmHg 60%
    01:00 -3°C° 0.2 mm 4 m/s 754 mmHg 70%
    02:00 -4°C° 0.2 mm 4 m/s 754 mmHg 81%
    03:00 -4°C° 0.1 mm 4 m/s 753 mmHg 84%
    04:00 -3°C° 0.1 mm 4 m/s 752 mmHg 87%
    05:00 -3°C° 0.1 mm 4 m/s 751 mmHg 90%
    06:00 -2°C° 0.1 mm 3 m/s 751 mmHg 91%
    07:00 -2°C° 0.1 mm 3 m/s 750 mmHg 92%
    08:00 -2°C° 0.1 mm 3 m/s 750 mmHg 93%
    09:00 -1°C° 0.1 mm 2 m/s 749 mmHg 92%
    10:00 -1°C° 0.1 mm 2 m/s 749 mmHg 91%
    11:00 +1°C° 0.1 mm 2 m/s 749 mmHg 91%
    12:00 +1°C° 0 mm 2 m/s 748 mmHg 91%
    13:00 +2°C° 0 mm 1 m/s 748 mmHg 92%
    14:00 +2°C° 0 mm 1 m/s 748 mmHg 93%
    15:00 +2°C° 0.1 mm 1 m/s 748 mmHg 94%
    16:00 0°C° 0.1 mm 0 m/s 748 mmHg 95%
    17:00 0°C° 0.1 mm 0 m/s 748 mmHg 96%
    18:00 +1°C° 0.1 mm 1 m/s 748 mmHg 96%
    19:00 +1°C° 0.1 mm 1 m/s 748 mmHg 96%
    20:00 +1°C° 0.1 mm 1 m/s 748 mmHg 96%
    21:00 +1°C° 0.1 mm 1 m/s 748 mmHg 96%
    22:00 -1°C° 0.1 mm 2 m/s 748 mmHg 96%
    23:00 -2°C° 0.1 mm 2 m/s 749 mmHg 96%

    19 Noiembrie, Luni

    Timp Temperatura Precipitaţii Vânt Presiune Umiditate
    00:00 -2°C° 0.1 mm 2 m/s 749 mmHg 95%
    01:00 -2°C° 0.1 mm 3 m/s 749 mmHg 94%
    02:00 -2°C° 0.1 mm 3 m/s 750 mmHg 94%
    03:00 -2°C° 0.1 mm 3 m/s 750 mmHg 91%
    04:00 -3°C° 0.1 mm 4 m/s 750 mmHg 88%
    05:00 -4°C° 0.1 mm 4 m/s 751 mmHg 84%
    06:00 -4°C° 0 mm 4 m/s 751 mmHg 79%
    07:00 -4°C° 0 mm 4 m/s 752 mmHg 74%
    08:00 -4°C° 0 mm 4 m/s 752 mmHg 69%
    09:00 -4°C° 0 mm 4 m/s 753 mmHg 66%
    10:00 -4°C° 0 mm 4 m/s 753 mmHg 64%
    11:00 -4°C° 0 mm 4 m/s 754 mmHg 62%
    12:00 -3°C° 0 mm 4 m/s 754 mmHg 67%
    13:00 -3°C° 0 mm 4 m/s 754 mmHg 72%
    14:00 -3°C° 0 mm 4 m/s 754 mmHg 76%
    15:00 -4°C° 0 mm 4 m/s 754 mmHg 80%
    16:00 -4°C° 0 mm 4 m/s 755 mmHg 83%
    17:00 -4°C° 0 mm 4 m/s 755 mmHg 86%
    18:00 -4°C° 0 mm 4 m/s 755 mmHg 86%
    19:00 -4°C° 0 mm 4 m/s 755 mmHg 86%
    20:00 -4°C° 0 mm 4 m/s 755 mmHg 86%
    21:00 -4°C° 0 mm 4 m/s 755 mmHg 86%
    22:00 -4°C° 0 mm 4 m/s 756 mmHg 86%
    23:00 -4°C° 0 mm 4 m/s 756 mmHg 86%

    20 Noiembrie, Marţi

    Timp Temperatura Precipitaţii Vânt Presiune Umiditate
    00:00 -4°C° 0 mm 4 m/s 756 mmHg 87%
    01:00 -4°C° 0 mm 3 m/s 756 mmHg 88%
    02:00 -5°C° 0 mm 3 m/s 756 mmHg 89%
    03:00 -4°C° 0 mm 3 m/s 756 mmHg 90%
    04:00 -4°C° 0 mm 4 m/s 756 mmHg 91%
    05:00 -4°C° 0 mm 4 m/s 755 mmHg 92%
    06:00 -4°C° 0 mm 3 m/s 755 mmHg 92%
    07:00 -4°C° 0 mm 3 m/s 755 mmHg 92%
    08:00 -4°C° 0 mm 3 m/s 755 mmHg 92%
    09:00 -4°C° 0 mm 3 m/s 755 mmHg 91%
    10:00 -2°C° 0 mm 3 m/s 755 mmHg 89%
    11:00 -2°C° 0 mm 3 m/s 755 mmHg 87%
    12:00 -2°C° 0 mm 3 m/s 755 mmHg 87%
    13:00 -2°C° 0 mm 2 m/s 754 mmHg 87%
    14:00 -2°C° 0 mm 2 m/s 754 mmHg 87%
    15:00 -2°C° 0 mm 2 m/s 754 mmHg 89%
    16:00 -3°C° 0 mm 2 m/s 754 mmHg 90%
    17:00 -3°C° 0 mm 2 m/s 753 mmHg 91%
    18:00 -3°C° 0 mm 2 m/s 753 mmHg 92%
    19:00 -4°C° 0 mm 2 m/s 753 mmHg 93%
    20:00 -4°C° 0 mm 2 m/s 752 mmHg 93%
    21:00 -4°C° 0 mm 2 m/s 752 mmHg 93%
    22:00 -4°C° 0 mm 2 m/s 752 mmHg 93%
    23:00 -4°C° 0 mm 2 m/s 751 mmHg 93%
    Arată mai mult